Pagina principale
METAR-TAF:

METAR-TAF

Aeroporti :

Ferrara, Italia

latitudine: 44-50N, longitudine: 011-37E, altezza: 10 m

Osservazione

Il bollettino è stato emesso 6 ore e 41 minuti fa, alle 17:55 UTC
Vento calmo
Temperature 10°C
Umidità 100%
Pressione 1005 hPa
Visibilità 10 km o più
Nubi sparse ad un'altezza di 4000 ft
Nubi sparse ad un'altezza di 7000 ft
pioggia debole

METAR: LIPF 261755Z 00000KT 9999 -RA SCT040 SCT070 10/10 Q1005 RMK BKN VIS MIN 9999

Ora: 01:36 (00:36 UTC)


TAF: mancante

Osservazioni e previsioni meteorologiche di più di 4000 aeroporti (messaggi METAR e TAF).

Le stazioni disponibili sono rappresentate dai dischi gialli e rossi sulla carta.

Puntare il mouse per vedere il nome della stazione.

Clicca sopra per visualizzare le osservazioni e previsioni meteorologiche.

Per cambiare la mappa : fare clic sui pulsanti verdi con una croce nera per ingrandire, il pulsante verde con un trattino per diminuire, o sulla freccia verde per le mappe adiacenti.


METAR-TAF: